Location: Gallinara
(44.0333°N, 8.2333°E)
Time: 17:02:36
(UTC+00:00)

IRIDIUM 114 - Pass Details

Date: 25 September 2020
Orbit: 776 x 779 km, 86.4° (Epoch: 28 October)

Event Time Altitude Azimuth Distance (km) Brightness Sun altitude
Rises 03:14:25 0° 353° (N) 3,271 7.8 -22.5°
Reaches altitude 10° 03:16:48 10° 351° (N) 2,338 6.9 -22.1°
Maximum altitude 03:21:58 63° 271° (W) 870 4.2 -21.3°
Enters shadow 03:24:26 30° 201° (SSW) 1,358 5.2 -20.9°
